TimeEDT,TemperatureF,Dew PointF,Humidity,Sea Level PressureIn,VisibilityMPH,Wind Direction,Wind SpeedMPH,Gust SpeedMPH,PrecipitationIn,Events,Conditions,WindDirDegrees,DateUTC
12:15 AM,59.4,56.3,90,30.15,10.0,Calm,Calm,-,N/A,,Overcast,0,2013-05-01 04:15:00
12:35 AM,58.5,56.3,93,30.15,10.0,Calm,Calm,-,N/A,,Overcast,0,2013-05-01 04:35:00
12:55 AM,59.5,56.1,88,30.15,10.0,Calm,Calm,-,N/A,,Overcast,0,2013-05-01 04:55:00
1:15 AM,59.2,55.9,89,30.16,10.0,Calm,Calm,-,N/A,,Overcast,0,2013-05-01 05:15:00
1:35 AM,58.6,55.9,91,30.16,10.0,Calm,Calm,-,N/A,,Overcast,0,2013-05-01 05:35:00
1:55 AM,58.8,55.9,90,30.16,10.0,Calm,Calm,-,N/A,,Overcast,0,2013-05-01 05:55:00
2:15 AM,58.3,55.6,91,30.16,10.0,Calm,Calm,-,N/A,,Overcast,0,2013-05-01 06:15:00
2:35 AM,58.3,55.4,90,30.16,10.0,Calm,Calm,-,N/A,,Overcast,0,2013-05-01 06:35:00
2:55 AM,57.6,55.4,92,30.15,10.0,Calm,Calm,-,N/A,,Overcast,0,2013-05-01 06:55:00
3:15 AM,55.6,54.0,94,30.15,10.0,Calm,Calm,-,N/A,,Mostly Cloudy,0,2013-05-01 07:15:00
3:35 AM,56.3,54.1,92,30.15,10.0,Calm,Calm,-,N/A,,Scattered Clouds,0,2013-05-01 07:35:00
3:55 AM,53.8,52.9,97,30.15,10.0,Calm,Calm,-,N/A,,Scattered Clouds,0,2013-05-01 07:55:00
4:15 AM,55.0,53.2,94,30.15,10.0,Calm,Calm,-,N/A,,Scattered Clouds,0,2013-05-01 08:15:00
4:35 AM,52.7,51.3,95,30.15,10.0,Calm,Calm,-,N/A,,Scattered Clouds,0,2013-05-01 08:35:00
4:55 AM,52.2,51.1,96,30.15,10.0,WSW,3.5,-,N/A,,Clear,250,2013-05-01 08:55:00
5:15 AM,52.5,52.3,99,30.15,5.0,Calm,Calm,-,N/A,,Clear,0,2013-05-01 09:15:00
5:35 AM,50.4,49.3,96,30.15,5.0,Calm,Calm,-,N/A,,Clear,0,2013-05-01 09:35:00
6:15 AM,49.5,48.9,98,30.16,10.0,NE,3.5,-,N/A,,Clear,50,2013-05-01 10:15:00
6:35 AM,50.4,50.0,99,30.16,7.0,Calm,Calm,-,N/A,,Clear,0,2013-05-01 10:35:00
7:15 AM,48.9,48.0,97,30.17,3.0,Calm,Calm,-,N/A,,Clear,0,2013-05-01 11:15:00
7:35 AM,49.5,49.1,99,30.18,5.0,Calm,Calm,-,N/A,,Clear,0,2013-05-01 11:35:00
8:15 AM,52.7,51.8,97,30.19,7.0,Calm,Calm,-,N/A,,Clear,0,2013-05-01 12:15:00
8:35 AM,54.5,52.7,94,30.19,10.0,Calm,Calm,-,N/A,,Clear,0,2013-05-01 12:35:00
8:55 AM,56.5,53.8,91,30.20,10.0,WSW,4.6,-,N/A,,Clear,240,2013-05-01 12:55:00
9:15 AM,59.0,55.2,87,30.20,10.0,West,4.6,-,N/A,,Clear,260,2013-05-01 13:15:00
9:35 AM,62.2,55.4,78,30.20,10.0,WSW,6.9,-,N/A,,Clear,250,2013-05-01 13:35:00
9:55 AM,63.9,55.6,74,30.22,10.0,West,5.8,-,N/A,,Clear,280,2013-05-01 13:55:00
10:15 AM,64.6,54.7,70,30.20,10.0,West,3.5,-,N/A,,Clear,260,2013-05-01 14:15:00
10:35 AM,65.8,53.2,64,30.20,10.0,Calm,Calm,-,N/A,,Clear,0,2013-05-01 14:35:00
10:55 AM,66.4,53.1,62,30.20,10.0,Calm,Calm,-,N/A,,Clear,0,2013-05-01 14:55:00
11:15 AM,69.1,53.6,58,30.20,10.0,Calm,Calm,-,N/A,,Clear,0,2013-05-01 15:15:00
11:35 AM,69.1,55.0,61,30.19,10.0,WSW,4.6,-,N/A,,Clear,250,2013-05-01 15:35:00
11:55 AM,69.8,55.8,61,30.18,10.0,WSW,8.1,-,N/A,,Clear,240,2013-05-01 15:55:00
12:15 PM,70.3,55.8,60,30.17,10.0,West,8.1,-,N/A,,Clear,260,2013-05-01 16:15:00
12:35 PM,71.2,55.6,58,30.16,10.0,West,5.8,-,N/A,,Clear,270,2013-05-01 16:35:00
12:55 PM,72.3,55.6,56,30.16,10.0,WSW,6.9,-,N/A,,Scattered Clouds,240,2013-05-01 16:55:00
1:15 PM,72.3,57.4,59,30.16,10.0,West,11.5,-,N/A,,Scattered Clouds,260,2013-05-01 17:15:00
1:35 PM,72.3,55.8,56,30.16,10.0,West,9.2,16.1,N/A,,Scattered Clouds,270,2013-05-01 17:35:00
2:15 PM,74.5,54.7,50,30.17,10.0,SW,8.1,-,N/A,,Scattered Clouds,220,2013-05-01 18:15:00
2:35 PM,74.1,53.1,48,30.16,10.0,SSW,4.6,-,N/A,,Scattered Clouds,210,2013-05-01 18:35:00
3:15 PM,72.5,55.9,56,30.16,10.0,SSW,4.6,-,N/A,,Clear,210,2013-05-01 19:15:00
3:35 PM,73.2,54.0,51,30.15,10.0,Calm,Calm,-,N/A,,Clear,0,2013-05-01 19:35:00
3:55 PM,73.8,53.8,50,30.14,10.0,SSW,5.8,-,N/A,,Clear,210,2013-05-01 19:55:00
4:15 PM,73.4,53.1,49,30.14,10.0,South,8.1,-,N/A,,Clear,170,2013-05-01 20:15:00
4:35 PM,73.0,53.1,49,30.14,10.0,South,9.2,-,N/A,,Clear,170,2013-05-01 20:35:00
4:55 PM,71.6,51.6,49,30.14,10.0,South,9.2,-,N/A,,Clear,190,2013-05-01 20:55:00
5:15 PM,71.2,52.5,52,30.14,10.0,South,9.2,-,N/A,,Clear,190,2013-05-01 21:15:00
5:35 PM,70.9,52.2,51,30.14,10.0,South,6.9,-,N/A,,Clear,180,2013-05-01 21:35:00
5:55 PM,70.2,52.0,52,30.14,10.0,South,5.8,-,N/A,,Clear,190,2013-05-01 21:55:00
6:15 PM,69.3,52.2,54,30.14,10.0,South,6.9,-,N/A,,Clear,190,2013-05-01 22:15:00
6:35 PM,68.2,53.4,59,30.14,10.0,West,8.1,-,N/A,,Clear,260,2013-05-01 22:35:00
6:55 PM,65.7,54.3,67,30.14,10.0,West,6.9,-,N/A,,Clear,270,2013-05-01 22:55:00
7:15 PM,64.8,53.8,68,30.14,10.0,West,6.9,-,N/A,,Clear,270,2013-05-01 23:15:00
7:35 PM,64.0,53.6,69,30.15,10.0,West,5.8,-,N/A,,Clear,270,2013-05-01 23:35:00
7:55 PM,63.1,53.4,71,30.15,10.0,West,8.1,-,N/A,,Clear,280,2013-05-01 23:55:00
8:15 PM,62.6,52.9,70,30.16,10.0,West,3.5,-,N/A,,Clear,270,2013-05-02 00:15:00
8:35 PM,62.4,53.4,72,30.17,10.0,WSW,3.5,-,N/A,,Clear,240,2013-05-02 00:35:00
8:55 PM,61.3,53.4,75,30.17,10.0,SW,3.5,-,N/A,,Clear,220,2013-05-02 00:55:00
9:15 PM,59.5,53.4,80,30.18,10.0,Calm,Calm,-,N/A,,Clear,0,2013-05-02 01:15:00
9:35 PM,59.2,52.9,80,30.19,10.0,North,3.5,-,N/A,,Clear,360,2013-05-02 01:35:00
9:55 PM,58.8,52.9,81,30.20,10.0,Calm,Calm,-,N/A,,Clear,0,2013-05-02 01:55:00
10:35 PM,56.8,52.7,86,30.21,3.0,ENE,4.6,-,N/A,,Clear,60,2013-05-02 02:35:00
10:55 PM,56.3,52.0,85,30.21,5.0,Calm,Calm,-,N/A,,Clear,0,2013-05-02 02:55:00
11:15 PM,56.5,52.5,87,30.21,10.0,Calm,Calm,-,N/A,,Clear,0,2013-05-02 03:15:00
11:35 PM,56.1,51.6,85,30.22,10.0,Calm,Calm,-,N/A,,Clear,0,2013-05-02 03:35:00
11:55 PM,55.6,51.1,85,30.22,10.0,Calm,Calm,-,N/A,,Clear,0,2013-05-02 03:55:00